Location: Hackberry
(29.5783°N, 96.8797°W)
Time: 04:04:50
(UTC+00:00)

Explorer 11/Cluster Stage 4 - Pass Details

Date: 16 November 2024
Orbit: 464 x 1202 km, 28.8° (Epoch: 03 December)

Event Time Altitude Azimuth Distance (km) Brightness Sun altitude
Exits shadow 12:14:46 10° 272° (W) 2,038 8.1 -8.7°
Reaches altitude 10° 12:14:46 10° 272° (W) 2,037 8.1 -8.7°
Maximum altitude 12:19:23 70° 189° (S) 597 6.0 -7.8°
Drops below altitude 10° 12:23:15 10° 106° (ESE) 1,711 10.2 -7.0°
Sets 12:25:19 0° 104° (ESE) 2,539 11.9 -6.5°
